Stündliche Wetter Cegelnya

Heute, 30 Oktober, Freitag

Zeit Temperatur Niederschläge Wind Luftdruck Luftfeuchtigkeit
00:00 +8°C° 0.1 mm 2 m/S 749 mmHg 89%
01:00 +8°C° 0.1 mm 2 m/S 748 mmHg 90%
02:00 +9°C° 0 mm 1 m/S 748 mmHg 94%
03:00 +9°C° 0 mm 1 m/S 748 mmHg 94%
04:00 +9°C° 0 mm 1 m/S 748 mmHg 95%
05:00 +9°C° 0 mm 1 m/S 748 mmHg 95%
06:00 +9°C° 0 mm 1 m/S 748 mmHg 96%
07:00 +9°C° 0 mm 1 m/S 748 mmHg 96%
08:00 +9°C° 0 mm 1 m/S 748 mmHg 96%
09:00 +10°C° 0 mm 1 m/S 748 mmHg 93%
10:00 +9°C° 0 mm 2 m/S 749 mmHg 90%
11:00 +10°C° 0 mm 2 m/S 749 mmHg 87%
12:00 +10°C° 0 mm 2 m/S 749 mmHg 85%
13:00 +12°C° 0 mm 2 m/S 749 mmHg 83%
14:00 +12°C° 0 mm 2 m/S 748 mmHg 81%
15:00 +12°C° 0 mm 1 m/S 749 mmHg 84%
16:00 +11°C° 0 mm 1 m/S 749 mmHg 86%
17:00 +10°C° 0 mm 1 m/S 749 mmHg 89%
18:00 +10°C° 0 mm 1 m/S 749 mmHg 90%
19:00 +9°C° 0 mm 2 m/S 749 mmHg 91%
20:00 +9°C° 0 mm 2 m/S 749 mmHg 92%
21:00 +9°C° 0.1 mm 2 m/S 749 mmHg 92%
22:00 +9°C° 0.1 mm 2 m/S 749 mmHg 92%
23:00 +8°C° 0.1 mm 2 m/S 749 mmHg 92%

Morgen, 31 Oktober, Samstag

Zeit Temperatur Niederschläge Wind Luftdruck Luftfeuchtigkeit
00:00 +8°C° 0.1 mm 2 m/S 749 mmHg 92%
01:00 +8°C° 0.1 mm 2 m/S 749 mmHg 93%
02:00 +7°C° 0.1 mm 2 m/S 749 mmHg 93%
03:00 +7°C° 0 mm 2 m/S 749 mmHg 93%
04:00 +6°C° 0 mm 2 m/S 749 mmHg 93%
05:00 +6°C° 0 mm 2 m/S 750 mmHg 93%
06:00 +6°C° 0 mm 2 m/S 750 mmHg 92%
07:00 +6°C° 0 mm 2 m/S 750 mmHg 91%
08:00 +5°C° 0 mm 3 m/S 750 mmHg 90%
09:00 +7°C° 0.1 mm 3 m/S 750 mmHg 88%
10:00 +8°C° 0.1 mm 3 m/S 751 mmHg 86%
11:00 +9°C° 0.1 mm 3 m/S 751 mmHg 84%
12:00 +9°C° 0.3 mm 3 m/S 751 mmHg 86%
13:00 +9°C° 0.3 mm 3 m/S 751 mmHg 87%
14:00 +9°C° 0.3 mm 3 m/S 751 mmHg 89%
15:00 +9°C° 0.3 mm 3 m/S 751 mmHg 90%
16:00 +9°C° 0.3 mm 3 m/S 751 mmHg 91%
17:00 +9°C° 0.3 mm 3 m/S 751 mmHg 92%
18:00 +9°C° 0.2 mm 3 m/S 751 mmHg 92%
19:00 +8°C° 0.2 mm 4 m/S 751 mmHg 91%
20:00 +8°C° 0.2 mm 4 m/S 752 mmHg 91%
21:00 +8°C° 0.1 mm 4 m/S 752 mmHg 90%
22:00 +7°C° 0.1 mm 4 m/S 752 mmHg 90%
23:00 +7°C° 0.1 mm 5 m/S 752 mmHg 89%

übermorgen, 1 November, Sonntag

Zeit Temperatur Niederschläge Wind Luftdruck Luftfeuchtigkeit
00:00 +7°C° 0.2 mm 5 m/S 752 mmHg 89%
01:00 +7°C° 0.2 mm 5 m/S 752 mmHg 88%
02:00 +7°C° 0.2 mm 5 m/S 752 mmHg 88%
03:00 +6°C° 0.1 mm 5 m/S 752 mmHg 88%
04:00 +6°C° 0.1 mm 5 m/S 751 mmHg 87%
05:00 +6°C° 0.1 mm 5 m/S 751 mmHg 87%
06:00 +6°C° 0 mm 5 m/S 751 mmHg 86%
07:00 +5°C° 0 mm 6 m/S 751 mmHg 86%
08:00 +5°C° 0 mm 6 m/S 751 mmHg 85%
09:00 +5°C° 0.2 mm 6 m/S 751 mmHg 84%
10:00 +6°C° 0.2 mm 5 m/S 751 mmHg 84%
11:00 +6°C° 0.2 mm 5 m/S 751 mmHg 83%
12:00 +6°C° 0.5 mm 5 m/S 751 mmHg 85%
13:00 +5°C° 0.5 mm 6 m/S 750 mmHg 87%
14:00 +4°C° 0.5 mm 6 m/S 750 mmHg 89%
15:00 +4°C° 0.5 mm 6 m/S 750 mmHg 89%
16:00 +5°C° 0.5 mm 5 m/S 750 mmHg 90%
17:00 +5°C° 0.5 mm 5 m/S 749 mmHg 90%
18:00 +5°C° 0.2 mm 5 m/S 749 mmHg 90%
19:00 +6°C° 0.2 mm 5 m/S 749 mmHg 90%
20:00 +6°C° 0.2 mm 4 m/S 749 mmHg 91%
21:00 +6°C° 0 mm 4 m/S 749 mmHg 91%
22:00 +6°C° 0 mm 4 m/S 749 mmHg 91%
23:00 +6°C° 0 mm 4 m/S 749 mmHg 92%

2 November, Montag

Zeit Temperatur Niederschläge Wind Luftdruck Luftfeuchtigkeit
00:00 +6°C° 0 mm 4 m/S 749 mmHg 92%
01:00 +7°C° 0 mm 3 m/S 749 mmHg 93%
02:00 +7°C° 0 mm 3 m/S 749 mmHg 93%
03:00 +7°C° 0 mm 3 m/S 749 mmHg 94%
04:00 +7°C° 0 mm 3 m/S 749 mmHg 94%
05:00 +7°C° 0 mm 2 m/S 749 mmHg 95%
06:00 +7°C° 0 mm 2 m/S 749 mmHg 95%
07:00 +8°C° 0 mm 2 m/S 749 mmHg 94%
08:00 +8°C° 0 mm 2 m/S 749 mmHg 94%
09:00 +9°C° 0 mm 2 m/S 750 mmHg 91%
10:00 +9°C° 0 mm 2 m/S 750 mmHg 88%
11:00 +10°C° 0 mm 2 m/S 750 mmHg 85%
12:00 +10°C° 0 mm 2 m/S 750 mmHg 85%
13:00 +10°C° 0 mm 2 m/S 750 mmHg 85%
14:00 +10°C° 0 mm 2 m/S 750 mmHg 85%
15:00 +10°C° 0 mm 2 m/S 750 mmHg 88%
16:00 +10°C° 0 mm 2 m/S 750 mmHg 90%
17:00 +9°C° 0 mm 2 m/S 751 mmHg 92%
18:00 +9°C° 0 mm 2 m/S 751 mmHg 93%
19:00 +9°C° 0 mm 2 m/S 751 mmHg 94%
20:00 +10°C° 0 mm 1 m/S 751 mmHg 95%
21:00 +10°C° 0 mm 1 m/S 752 mmHg 95%
22:00 +8°C° 0 mm 2 m/S 752 mmHg 96%
23:00 +8°C° 0 mm 2 m/S 752 mmHg 96%

3 November, Dienstag

Zeit Temperatur Niederschläge Wind Luftdruck Luftfeuchtigkeit
00:00 +9°C° 0 mm 1 m/S 752 mmHg 96%
01:00 +9°C° 0 mm 1 m/S 752 mmHg 95%
02:00 +9°C° 0 mm 1 m/S 752 mmHg 95%
03:00 +9°C° 0 mm 1 m/S 752 mmHg 95%
04:00 +9°C° 0 mm 1 m/S 752 mmHg 95%
05:00 +9°C° 0 mm 1 m/S 752 mmHg 94%
06:00 +8°C° 0 mm 1 m/S 753 mmHg 94%
07:00 +7°C° 0 mm 2 m/S 753 mmHg 93%
08:00 +7°C° 0 mm 2 m/S 753 mmHg 93%
09:00 +8°C° 0 mm 2 m/S 753 mmHg 91%
10:00 +8°C° 0 mm 2 m/S 753 mmHg 89%
11:00 +9°C° 0 mm 2 m/S 754 mmHg 87%
12:00 +9°C° 0 mm 2 m/S 754 mmHg 86%
13:00 +9°C° 0 mm 2 m/S 754 mmHg 85%
14:00 +10°C° 0 mm 1 m/S 754 mmHg 84%
15:00 +10°C° 0 mm 1 m/S 754 mmHg 85%
16:00 +10°C° 0 mm 1 m/S 754 mmHg 86%
17:00 +10°C° 0 mm 1 m/S 754 mmHg 87%
18:00 +10°C° 0 mm 1 m/S 754 mmHg 87%
19:00 +9°C° 0 mm 1 m/S 755 mmHg 88%
20:00 +9°C° 0 mm 1 m/S 755 mmHg 88%
21:00 +9°C° 0 mm 1 m/S 755 mmHg 89%
22:00 +8°C° 0 mm 1 m/S 756 mmHg 91%
23:00 +8°C° 0 mm 1 m/S 756 mmHg 92%

4 November, Mittwoch

Zeit Temperatur Niederschläge Wind Luftdruck Luftfeuchtigkeit
00:00 +7°C° 0 mm 1 m/S 756 mmHg 93%
01:00 +7°C° 0 mm 1 m/S 756 mmHg 93%
02:00 +7°C° 0 mm 1 m/S 756 mmHg 94%
03:00 +7°C° 0 mm 1 m/S 756 mmHg 94%
04:00 +7°C° 0 mm 1 m/S 757 mmHg 94%
05:00 +6°C° 0 mm 1 m/S 757 mmHg 94%
06:00 +7°C° 0 mm 1 m/S 757 mmHg 95%
07:00 +7°C° 0 mm 1 m/S 758 mmHg 95%
08:00 +6°C° 0 mm 2 m/S 758 mmHg 95%
09:00 +7°C° 0 mm 2 m/S 758 mmHg 89%
10:00 +9°C° 0 mm 2 m/S 758 mmHg 83%
11:00 +10°C° 0 mm 2 m/S 759 mmHg 78%
12:00 +12°C° 0 mm 2 m/S 759 mmHg 75%
13:00 +12°C° 0 mm 1 m/S 759 mmHg 73%
14:00 +12°C° 0 mm 1 m/S 759 mmHg 71%
15:00 +11°C° 0 mm 1 m/S 759 mmHg 76%
16:00 +10°C° 0 mm 1 m/S 759 mmHg 81%
17:00 +9°C° 0 mm 1 m/S 759 mmHg 86%
18:00 +9°C° 0 mm 1 m/S 759 mmHg 88%
19:00 +8°C° 0 mm 1 m/S 759 mmHg 89%
20:00 +8°C° 0 mm 1 m/S 760 mmHg 90%
21:00 +8°C° 0 mm 1 m/S 760 mmHg 91%
22:00 +8°C° 0 mm 1 m/S 760 mmHg 92%
23:00 +7°C° 0 mm 1 m/S 760 mmHg 92%
Mehr zeigen